Location: Jetmore
(38.0845°N, 99.8935°W)
Time: 07:02:48
(UTC+00:00)

ISS - Visible Passes

Search period start: 23 September 2021 00:00
Search period end: 03 October 2021 00:00
Orbit: 419 x 424 km, 51.6° (Epoch: 23 September)

Date Brightness Start Highest point End Pass type
(mag) Time Alt. Az. Time Alt. Az. Time Alt. Az.
23 Sep -1.2 01:07:18 10° WNW 01:09:40 17° NNW 01:12:01 10° NNE visible
25 Sep -0.9 01:12:23 10° NNW 01:13:12 11° NNW 01:14:02 10° N visible
28 Sep -1.0 02:07:15 10° N 02:07:48 10° NNE 02:07:55 10° NNE visible
29 Sep -0.4 02:55:41 10° NNW 02:55:45 10° NNW 02:55:45 10° NNW visible
30 Sep -1.4 02:09:04 10° NNW 02:10:36 16° N 02:10:36 16° N visible
01 Oct -1.4 01:22:32 10° N 01:24:09 13° NNE 01:25:30 11° NE visible
01 Oct -0.4 02:58:16 10° NW 02:58:30 12° NW 02:58:30 12° NW visible
02 Oct -2.0 02:11:29 10° NW 02:13:27 26° N 02:13:27 26° N visible
